Flag for Germany Weather past 2 weeks in Recklinghausen, North Rhine-Westphalia, Germany

Now
45 °F

Scattered showers. Clear.


Feels Like: 40 °F
Forecast: 37 / 56 °F
Wind: 9 mph from Northwest

Location: Dortmund / Wickede

Current Time: Apr 28, 2015 at 5:25:56 PM

Latest Report: Apr 28, 2015 at 4:50 PM


Visibility: N/A

Pressure: 30.04 "Hg

Humidity: 71%

Dew point: 36 °F

Location of RecklinghausenLocation

Historic Weather in Recklinghausen — Graph

°F

Recklinghausen temperature yesterday

Maximum temperature yesterday: 48 °F (at 5:20 AM)
Minimum temperature yesterday: 43 °F (at 9:50 AM)
Average temperature yesterday: 46 °F

Past Weeks' High & Low Weather Summary

 TemperatureHumidityPressure
High73 °F (Apr 15, 4:20 PM)94% (Apr 27, 5:20 AM)30.45 "Hg (Apr 27, 5:20 AM)
Low30 °F (Apr 28, 5:20 AM)18% (Apr 21, 4:50 PM)29.62 "Hg (Apr 27, 5:20 AM)
Average52 °F61%30.08 "Hg
* Reported Apr 13 4:20 PM — Apr 28 4:20 PM, Recklinghausen, Weather by CustomWeather, © 2015

Note: Actual official high and low records may vary slightly from our data, if they occured in-between our weather recording intervals... More about our weather records

Advertising

Recklinghausen weather history for previous 24 hours

 ConditionsComfort  
Time TempWeatherWind HumidityBarometerVisibility
4:20 PM
Tue, Apr 28
46 °FSprinkles. Partly sunny.15 mph66%30.04 "HgN/A
3:50 PM48 °FScattered clouds.14 mph71%30.04 "HgN/A
3:20 PM46 °FScattered showers. Clear.10 mph82%30.04 "HgN/A
2:50 PM43 °FSprinkles. Partly sunny.22 mph76%30.01 "HgN/A
2:20 PM48 °FScattered showers. Scattered clouds.18 mph66%29.98 "HgN/A
1:50 PM52 °FSprinkles. Clear.14 mph50%29.95 "HgN/A
1:20 PM54 °FPassing clouds.15 mph47%29.95 "HgN/A
12:50 PM54 °FPassing clouds.13 mph47%29.95 "HgN/A
12:20 PM52 °FPassing clouds.10 mph50%29.95 "HgN/A
11:50 AM50 °FPassing clouds.10 mph54%29.95 "HgN/A
11:20 AM48 °FPassing clouds.12 mph54%29.95 "HgN/A
10:50 AM48 °FPassing clouds.10 mph54%29.95 "HgN/A
10:20 AM46 °FSunny.9 mph57%29.95 "Hg10 mi
9:50 AM45 °FPassing clouds.6 mph61%29.95 "HgN/A
9:20 AM43 °FSunny.2 mph66%29.92 "Hg10 mi
8:50 AM41 °FSunny.5 mph66%29.92 "Hg10 mi
8:20 AM41 °FPassing clouds.5 mph76%29.92 "HgN/A
7:50 AM37 °FSunny.5 mph87%29.92 "Hg10 mi
7:20 AM37 °FSunny.2 mph87%29.89 "Hg10 mi
6:50 AM32 °FClear.2 mph87%29.89 "Hg10 mi
6:20 AM32 °FClear.2 mph93%29.89 "Hg10 mi
5:20 AM30 °FClear.No wind86%29.86 "Hg10 mi
10:50 PM
Mon, Apr 27
46 °FPassing clouds.9 mph66%29.80 "HgN/A
10:20 PM45 °FPassing clouds.5 mph81%29.80 "HgN/A
9:50 PM45 °FClear.3 mph81%29.80 "Hg10 mi
9:20 PM45 °FSunny.2 mph76%29.80 "Hg10 mi
8:50 PM46 °FSunny.3 mph71%29.77 "Hg10 mi
8:20 PM46 °FSunny.6 mph71%29.77 "Hg10 mi
7:50 PM46 °FSunny.6 mph71%29.77 "Hg10 mi
7:20 PM48 °FOvercast.6 mph66%29.77 "HgN/A
6:50 PM48 °FOvercast.6 mph66%29.77 "HgN/A
6:20 PM48 °FOvercast.7 mph66%29.77 "HgN/A
5:50 PM48 °FOvercast.8 mph66%29.74 "HgN/A
5:20 PM48 °FOvercast.8 mph66%29.77 "HgN/A
Weather by CustomWeather, © 2015

See weather overviewHow to use our weather pages